Weather History for KPGD - November, 2012

Change the Weather History Date:

Thursday, November 8, 2012

  Actual Average (KFMY) Record (KFMY)
Temperature  
Mean Temperature 61 °F 73 °F  
Max Temperature 71 °F 83 °F 89 °F (2003)
Min Temperature 50 °F 63 °F 46 °F (1976)
Degree Days  
Heating Degree Days 4 0  
Month to date heating degree days 0  
Since 1 July heating degree days 2  
Cooling Degree Days 0 8  
Month to date cooling degree days 71  
Year to date cooling degree days 3719  
Growing Degree Days 11 (Base 50)    
Moisture  
Dew Point 42 °F    
Average Humidity 55    
Maximum Humidity 80    
Minimum Humidity 27    
Precipitation  
Precipitation 0.00 in 0.08 in 2.07 in (1962)
Month to date precipitation 0.69  
Year to date precipitation 52.95  
Sea Level Pressure  
Sea Level Pressure 30.13 in    
Wind  
Wind Speed 7 mph (North)    
Max Wind Speed 16 mph    
Max Gust Speed 22 mph    
Visibility 10 miles    
Events      
T = Trace of Precipitation, MM = Missing Value Source: NWS Daily Summary

Daily Weather History Graph

Daily Weather History Graph

Search for Another Location

Airport or City:

Trip Planner

Search our weather history database for the weather conditions in past years. The results will help you decide how hot, cold, wet, or windy it might be!

Date:

Astronomy

Nov. 08, 2012 Rise Set
Actual Time 6:42 AM EST 5:40 PM EST
Civil Twilight 6:18 AM EST 6:04 PM EST
Nautical Twilight 5:50 AM EST 6:32 PM EST
Astronomical Twilight 5:23 AM EST 6:59 PM EST
Moon 1:08 AM EST (11/8) 1:52 PM EST (11/8)
Length of Visible Light 11h 45m
Length of Day
10h 57m
Waning Crescent, 33% of the Moon is Illuminated
Nov 8
Waning Crescent
Nov 13
New
Nov 20
First Quarter
Nov 28
Full
Dec 6
Last Quarter

Hourly Weather History & Observations

Time (EST) Temp. Dew Point Humidity Pressure Visibility Wind Dir Wind Speed Gust Speed Precip Events Conditions
12:53 AM 59.0 °F 51.1 °F 75% 30.03 in 10.0 mi Calm Calm - N/A   Overcast
1:53 AM 57.0 °F 50.0 °F 77% 30.03 in 10.0 mi NNE 8.1 mph - N/A   Overcast
2:53 AM 57.0 °F 48.0 °F 72% 30.04 in 10.0 mi North 10.4 mph - N/A   Overcast
3:53 AM 55.0 °F 48.0 °F 77% 30.05 in 10.0 mi North 3.5 mph - N/A   Mostly Cloudy
4:53 AM 55.9 °F 44.1 °F 64% 30.07 in 10.0 mi NNE 9.2 mph - N/A   Overcast
6:53 AM 51.1 °F 45.0 °F 80% 30.11 in 10.0 mi NNE 6.9 mph - N/A   Clear
7:53 AM 57.0 °F 45.0 °F 64% 30.13 in 10.0 mi NNE 8.1 mph - N/A   Clear
8:53 AM 60.1 °F 41.0 °F 49% 30.16 in 10.0 mi NNE 12.7 mph - N/A   Clear
9:53 AM 64.0 °F 42.1 °F 45% 30.18 in 10.0 mi NE 10.4 mph - N/A   Clear
10:53 AM 66.0 °F 39.9 °F 38% 30.18 in 10.0 mi North 10.4 mph - N/A   Clear
11:53 AM 68.0 °F 37.9 °F 33% 30.16 in 10.0 mi North 12.7 mph - N/A   Clear
12:53 PM 69.1 °F 37.0 °F 31% 30.14 in 10.0 mi North 16.1 mph 21.9 mph N/A   Clear
1:53 PM 71.1 °F 35.1 °F 27% 30.12 in 10.0 mi North 12.7 mph 19.6 mph N/A   Clear
2:53 PM 70.0 °F 35.1 °F 28% 30.11 in 10.0 mi North 11.5 mph 21.9 mph N/A   Clear
3:53 PM 69.1 °F 36.0 °F 30% 30.11 in 10.0 mi North 8.1 mph 17.3 mph N/A   Clear
4:53 PM 66.9 °F 36.0 °F 32% 30.11 in 10.0 mi North 8.1 mph - N/A   Clear
5:53 PM 59.0 °F 41.0 °F 51% 30.13 in 10.0 mi NNE 5.8 mph - N/A   Clear
6:53 PM 57.9 °F 39.9 °F 51% 30.14 in 10.0 mi North 5.8 mph - N/A   Clear
7:53 PM 57.0 °F 43.0 °F 59% 30.16 in 10.0 mi North 5.8 mph - N/A   Clear
8:53 PM 55.9 °F 43.0 °F 62% 30.18 in 10.0 mi North 6.9 mph - N/A   Clear
9:53 PM 55.0 °F 43.0 °F 64% 30.19 in 10.0 mi North 9.2 mph - N/A   Clear
10:53 PM 53.1 °F 44.1 °F 71% 30.20 in 10.0 mi North 6.9 mph - N/A   Clear
11:53 PM 50.0 °F 44.1 °F 80% 30.20 in 10.0 mi NE 4.6 mph - N/A   Clear